Regional Weather Roundup
Issued by NWS

Home | Current Version | Previous Version | Graphics & Text | Print | Product List | Glossary On
Versions: 1 2 3 4 5 6 7 8 9 10 11 12 13 14 15 16 17 18 19 20 21 22 23 24 25 26 27 28 29 30 31 32 33 34 35 36 37 38 39 40 41 42 43 44 45 46 47 48 49 50
000
ASUS45 KCYS 292210
RWRWY

WYOMING REGIONAL WEATHER ROUNDUP
NATIONAL WEATHER SERVICE CHEYENNE WY
400 PM MDT WED JUL 29 2015

NOTE:  "FAIR" INDICATES FEW OR NO CLOUDS BELOW 12,000 FEET
WITH NO SIGNIFICANT WEATHER AND/OR OBSTRUCTIONS TO VISIBILITY.

WYZ001-292300-
YELLOWSTONE NATIONAL PARK

CITY           SKY/WX    TMP DP  RH WIND       PRES   REMARKS
LK YELLOWSTONE   N/A     65  36  34 VRB3      30.47S
W YELLOWSTONE  NOT AVBL

$$
WYZ002>013-054>058-071-098>099-292300-
NORTHERN WYOMING

CITY           SKY/WX    TMP DP  RH WIND       PRES   REMARKS
JACKSON        FAIR      72  34  25 CALM      30.38F
CODY           FAIR      79  32  18 E10       30.25F
GREYBULL       FAIR      81  27  14 E7        30.21F
WORLAND        FAIR      82  21  10 NE6       30.23F
SHERIDAN       FAIR      81  34  18 VRB3      30.22F
BUFFALO        FAIR      78  33  19 VRB3      30.27F
GILLETTE       FAIR      79  30  16 W8        30.24F
HULETT         FAIR      77  36  22 W15       30.25F
NEWCASTLE      FAIR      79  32  18 SW10      30.25F

$$
WYZ014>020-022>026-101>103-292300-
CENTRAL WYOMING

CITY           SKY/WX    TMP DP  RH WIND       PRES   REMARKS
BIG PINEY      FAIR      75  27  17 SW12      30.41S
PINEDALE       FAIR      73  21  14 NW7       30.41F
DUBOIS         FAIR      73  18  12 N18G28    30.37F
LANDER         FAIR      80  31  16 VRB7      30.26F
RIVERTON       FAIR      78  26  14 NE8       30.29F
CASPER         FAIR      82  18   9 W12G18    30.28F
DOUGLAS        FAIR      82  35  18 NW7       30.26F

$$
WYZ021-027>030-104>119-292300-
SOUTHERN WYOMING

CITY           SKY/WX    TMP DP  RH WIND       PRES   REMARKS
EVANSTON       FAIR      80  14   8 MISG      30.40F
KEMMERER       FAIR      75   5   6 W8G18     30.43S
FORT BRIDGER   CLEAR     79  12   8 NW12G22   30.42F
ROCK SPRINGS   FAIR      76  14   9 VRB5G17   30.38F
DIXON          FAIR      82  16   8 W5        30.38F
RAWLINS        FAIR      80  15   8 S9G17     30.37F
SARATOGA       FAIR      81  23  12 NW10      30.38F
LARAMIE        FAIR      78  27  15 N8        30.38S
CHEYENNE       FAIR      81  46  29 E9G21     30.31F
TORRINGTON     FAIR      84  47  27 SE7       30.21F
PINE BLUFFS    FAIR      82  45  26 SE15      30.28F

$$



USA.gov is the U.S. government's official web portal to all federal, state and local government web resources and services.